{"data":{"norad_id":39215,"epoch":"2026-05-24T22:43:39.986112Z","epoch_age_seconds":79299,"freshness":"FRESH","line1":"1 39215U 13038A   26144.94699058  .00000130  00000+0  00000+0 0  9994","line2":"2 39215   2.9966   1.5512 0002004  45.7805 200.9411  1.00276140 43783","mean_motion":1.0027614,"eccentricity":0.0002004,"inclination_deg":2.9966,"raan_deg":1.5512,"arg_perigee_deg":45.7805,"mean_anomaly_deg":200.9411,"bstar":0,"rev_number":4378,"period_min":1436.0345342372,"perigee_km":35776.924573152,"apogee_km":35793.823708418,"semimajor_km":42163.511140785,"source":"CELESTRAK","updated_at":"2026-05-25T13:38:13.944172Z"}}